Wind_Speed
37 38 38 39 40 41 41 41 42 42 42 43 43 42 42 42 43 44 44 44 43 43 42 41 42 41 41 41 43 42 41 41 41 40 40 38 38 37 36 35 33 32 30
38 39 39 40 41 41 41 41 41 41 41 41 42 42 43 44 45 45 45 46 46 46 46 45 45 44 44 44 45 44 43 42 42 42 42 40 39 39 39 37 36 34 33
38 39 39 40 41 41 41 41 41 40 40 40 40 41 41 43 45 46 47 47 48 48 49 49 49 49 48 48 47 47 46 45 45 44 43 42 41 41 41 40 38 36 35
39 40 40 40 40 40 40 39 39 38 37 37 38 38 39 40 42 44 45 47 49 50 51 51 52 52 51 52 51 50 50 49 48 48 46 45 44 43 43 41 40 39 37
40 40 40 40 40 39 38 37 37 36 35 34 34 35 37 37 38 40 43 45 47 50 51 53 54 54 54 55 55 53 52 52 52 51 50 49 48 46 45 43 42 41 40
40 40 40 39 39 38 36 35 34 33 32 31 31 32 33 34 35 37 40 42 45 48 50 52 54 55 55 56 56 56 56 55 54 54 54 53 51 49 47 46 45 44 43
40 40 39 39 38 36 35 33 31 30 29 29 29 29 30 31 32 33 35 37 41 44 46 49 51 54 55 56 56 57 57 57 57 56 56 55 54 52 50 48 47 46 45
40 39 39 38 36 35 33 31 30 28 27 27 27 26 26 26 27 29 31 32 35 39 42 46 48 51 54 55 56 57 57 57 58 58 57 57 56 54 52 50 49 48 48
39 39 37 36 34 33 31 29 28 26 25 24 23 22 21 21 22 24 25 27 29 33 37 40 42 46 50 52 53 55 56 57 59 59 58 58 57 56 54 53 51 50 49
39 38 36 35 33 31 30 29 27 25 23 21 19 18 16 16 16 18 20 22 24 27 31 34 37 40 45 49 51 52 53 55 56 57 58 58 57 57 56 53 51 51 50
38 37 36 34 33 31 29 28 26 24 22 20 18 16 14 13 13 13 15 18 21 23 26 29 32 35 39 43 46 49 50 52 53 54 55 57 57 56 55 54 53 51 50
38 37 35 34 32 31 29 27 25 24 22 20 18 15 13 11 10 10 11 13 16 19 22 24 28 30 33 37 40 43 46 49 50 51 53 54 56 56 54 53 53 52 50
38 36 35 33 32 31 29 27 26 24 22 21 19 16 13 10 8 7 8 10 12 15 18 21 24 27 29 32 35 38 41 44 46 48 49 51 53 55 55 54 53 52 50
38 36 34 33 31 30 29 27 26 25 23 22 19 16 13 10 7 5 5 7 9 12 14 17 20 22 25 27 30 33 37 40 42 45 47 49 51 52 53 53 53 53 52
38 36 34 32 31 30 29 28 26 25 24 22 20 16 13 11 8 5 4 5 7 8 11 14 17 20 22 25 27 30 33 37 39 42 44 47 48 50 51 52 51 51 50
37 36 34 32 31 30 28 27 26 25 24 22 20 17 14 12 9 7 4 4 5 7 9 11 13 16 19 22 24 27 30 32 35 38 41 44 46 48 50 51 50 49 49
36 36 34 31 31 30 29 27 26 24 24 23 21 18 15 13 11 8 5 3 2 4 6 8 10 13 16 19 21 24 27 30 32 35 38 41 44 45 47 48 48 47 47
35 35 33 31 30 30 29 27 25 24 23 22 21 19 17 15 13 10 7 5 3 1 3 5 7 9 11 14 17 20 23 26 29 32 34 37 41 42 44 46 46 45 45
34 34 32 31 30 30 28 27 25 24 23 22 21 20 18 17 15 12 9 6 4 2 2 3 5 8 10 11 13 16 19 23 26 28 31 34 36 39 41 43 44 43 43
32 32 31 30 29 29 28 26 25 23 22 21 21 20 19 18 17 15 12 9 6 5 3 2 3 5 6 9 11 13 16 19 22 26 28 31 33 35 38 41 42 42 41
31 30 30 29 28 27 27 25 24 23 22 22 21 21 20 19 17 15 14 12 9 7 6 4 2 2 3 5 7 9 11 15 19 22 26 29 30 32 34 37 39 39 40
29 29 28 28 27 26 25 24 24 22 21 21 21 21 20 19 18 16 14 13 11 9 7 6 4 2 0 2 4 5 7 10 14 18 22 26 28 30 32 34 35 37 38
28 27 27 26 26 25 24 23 22 22 21 21 20 20 19 19 18 16 14 12 11 10 9 7 6 4 2 2 2 4 5 8 11 14 18 22 25 26 28 31 32 34 35
27 26 25 25 24 23 22 21 20 20 20 20 19 19 18 18 18 17 16 14 12 11 9 8 6 6 5 4 4 4 5 8 10 13 15 19 22 23 25 27 29 31 33
26 25 24 23 23 22 21 20 19 19 19 18 18 18 18 17 17 17 17 15 14 12 10 9 7 6 6 6 6 6 6 7 9 11 13 16 19 21 22 24 26 27 28
26 25 23 22 21 21 20 19 18 17 17 16 16 16 17 17 16 16 16 16 15 13 12 11 9 8 7 7 7 7 8 9 10 10 12 14 16 18 19 21 24 26 26
Wind_Direction
312 309 306 304 302 299 296 293 289 284 280 276 273 269 265 261 258 256 253 250 247 244 241 238 234 231 228 225 225 223 222 220 218 217 217 218 219 218 219 221 221 222 222
315 312 309 307 305 302 299 296 292 287 283 278 274 270 265 261 258 255 252 249 246 243 240 237 234 232 228 227 225 223 222 220 218 218 218 218 219 220 220 220 220 221 222
318 316 313 310 308 305 302 299 295 290 285 280 276 272 268 263 259 255 251 248 245 242 239 237 233 231 230 228 227 225 223 222 220 219 218 219 219 220 220 221 221 220 221
322 319 317 315 312 309 306 302 298 293 287 281 277 273 269 266 261 255 250 246 243 241 239 237 234 231 230 229 228 226 225 223 221 220 220 220 221 221 221 221 222 221 221
325 323 321 318 316 314 311 307 302 297 290 285 280 275 271 266 262 256 250 245 242 239 238 236 234 232 231 229 229 228 227 226 224 222 221 221 221 221 222 222 222 222 223
328 327 325 322 320 319 316 311 306 301 295 289 284 279 273 268 263 258 252 246 242 239 237 236 234 233 231 230 230 229 228 228 227 226 224 223 222 221 221 222 222 224 225
332 331 330 327 325 323 321 318 312 306 299 294 289 285 278 271 264 258 253 247 242 238 235 234 234 233 231 230 230 230 230 230 229 227 226 225 225 225 224 223 223 224 224
335 335 334 332 330 329 327 324 319 313 306 300 293 289 284 275 265 256 252 247 241 237 234 232 232 232 231 231 230 230 230 230 230 229 228 226 226 226 226 226 225 225 225
340 339 338 337 336 335 334 332 329 324 317 310 302 296 289 279 268 259 252 245 241 236 232 231 231 231 231 230 230 229 229 229 230 230 229 228 227 226 226 227 227 227 227
343 343 343 342 342 341 339 338 337 334 330 324 315 306 296 286 274 262 251 244 239 235 231 228 228 229 229 229 229 229 229 229 229 229 229 229 228 228 228 227 227 228 228
346 346 347 347 347 346 345 344 343 341 339 336 329 318 306 294 280 265 251 242 237 233 230 227 227 228 228 228 228 228 229 228 228 228 228 229 229 229 228 228 227 228 229
350 350 350 350 350 350 350 350 349 348 346 344 341 334 322 307 289 270 253 242 235 231 229 227 226 227 228 228 227 227 228 228 227 227 227 227 228 229 228 228 229 229 229
352 352 352 353 353 353 354 354 354 353 352 349 347 342 334 322 302 275 252 243 237 231 227 226 226 227 227 227 226 226 226 227 227 227 226 226 226 226 226 226 228 229 229
355 355 355 355 356 357 357 357 357 357 357 356 354 353 349 341 327 299 260 239 235 232 229 228 225 224 225 224 225 225 225 224 225 226 226 225 225 224 224 225 227 228 229
356 357 357 358 358 359 360 0 0 1 1 1 1 359 358 357 351 331 284 253 243 236 231 228 227 228 228 226 225 225 224 223 223 224 224 223 222 222 223 224 225 226 226
357 359 359 0 1 1 1 2 3 5 6 7 7 8 9 7 4 355 325 275 257 241 232 228 228 227 224 222 221 222 223 223 223 223 223 221 219 219 220 221 222 223 225
358 360 2 3 3 4 4 4 5 7 9 11 12 13 14 14 11 8 6 351 302 253 235 231 231 229 226 224 222 222 221 221 222 221 221 218 217 217 218 219 220 221 222
359 1 3 4 5 6 6 7 8 9 12 15 16 18 17 17 15 12 9 7 2 311 240 233 231 227 224 223 222 222 221 220 220 219 219 217 215 216 217 217 217 219 220
358 1 3 4 6 7 9 10 11 12 15 17 18 20 20 20 19 18 14 10 0 342 288 250 240 232 228 224 222 220 220 220 219 217 216 214 213 213 213 214 215 218 218
357 360 2 4 6 8 10 12 14 16 17 18 19 20 21 21 22 23 24 23 16 6 355 316 260 240 233 225 222 221 218 218 218 215 213 211 211 211 212 213 214 215 216
356 358 1 3 5 7 10 12 14 16 18 19 20 20 20 20 21 23 27 29 27 22 17 4 342 301 232 217 215 215 215 213 211 210 209 208 208 207 207 208 209 210 211
354 356 358 1 3 6 9 11 13 14 16 17 17 18 19 21 22 25 25 25 27 28 27 26 28 29 127 200 206 203 201 200 200 201 202 203 203 202 202 203 205 206 208
351 353 355 357 0 3 6 9 12 14 16 17 18 18 19 19 22 24 25 23 24 29 34 38 42 49 78 135 156 170 173 178 186 192 194 194 195 196 197 199 201 201 203
346 348 350 352 355 358 1 4 7 11 14 16 17 19 20 21 24 26 27 27 31 34 39 44 49 63 78 98 123 139 158 167 176 183 184 186 189 190 192 195 197 198 200
343 345 345 347 350 353 355 358 1 5 9 12 14 17 20 21 23 27 29 32 35 40 45 52 65 77 87 95 106 117 129 142 155 168 174 177 181 185 186 190 192 194 198
338 340 341 342 346 348 351 354 357 0 3 8 13 16 19 22 25 28 31 34 39 46 52 58 68 77 85 93 102 111 120 128 137 148 158 167 176 181 183 185 188 190 193
Height
5738 5733 5727 5721 5716 5711 5706 5701 5697 5694 5692 5690 5689 5689 5689 5691 5692 5695 5697 5701 5704 5708 5713 5717 5722 5727 5731 5736 5742 5747 5753 5760 5765 5771 5777 5782 5788 5793 5799 5804 5809 5813 5817
5729 5723 5717 5710 5704 5698 5693 5688 5683 5679 5676 5674 5673 5673 5673 5674 5676 5679 5682 5685 5690 5694 5699 5704 5710 5715 5720 5726 5731 5737 5743 5749 5756 5762 5768 5773 5779 5785 5791 5796 5801 5806 5811
5720 5713 5706 5699 5693 5686 5680 5674 5669 5665 5662 5659 5658 5657 5657 5657 5659 5662 5665 5669 5674 5679 5684 5690 5696 5702 5708 5714 5720 5726 5732 5739 5745 5752 5758 5764 5770 5776 5782 5788 5793 5798 5804
5711 5704 5696 5689 5681 5674 5667 5661 5656 5651 5648 5645 5643 5642 5641 5641 5642 5644 5648 5652 5657 5662 5668 5674 5681 5688 5694 5701 5707 5714 5721 5727 5734 5742 5748 5754 5761 5766 5773 5779 5785 5791 5796
5703 5695 5687 5678 5671 5663 5656 5649 5643 5639 5635 5631 5629 5627 5626 5626 5627 5628 5631 5636 5640 5646 5652 5658 5665 5672 5680 5687 5693 5700 5708 5715 5722 5729 5737 5744 5750 5757 5763 5770 5776 5781 5787
5695 5687 5678 5669 5661 5653 5646 5639 5632 5627 5623 5619 5616 5614 5613 5612 5613 5614 5616 5620 5625 5630 5636 5642 5649 5657 5664 5672 5679 5686 5694 5702 5710 5717 5725 5732 5739 5746 5753 5759 5766 5772 5779
5688 5679 5670 5661 5653 5644 5637 5629 5623 5617 5613 5609 5605 5603 5601 5599 5599 5600 5602 5605 5610 5615 5620 5627 5634 5641 5649 5657 5664 5672 5680 5688 5696 5705 5712 5720 5727 5735 5742 5749 5755 5762 5769
5681 5672 5663 5654 5645 5637 5629 5622 5615 5609 5604 5599 5596 5593 5590 5589 5588 5589 5591 5593 5597 5601 5607 5613 5620 5626 5634 5642 5650 5658 5666 5674 5683 5691 5699 5707 5714 5721 5729 5737 5744 5751 5757
5675 5666 5657 5648 5639 5631 5623 5616 5609 5603 5597 5592 5587 5584 5582 5580 5579 5579 5581 5583 5586 5590 5595 5601 5607 5613 5621 5629 5636 5645 5652 5660 5667 5677 5685 5693 5701 5709 5717 5725 5732 5740 5747
5670 5661 5652 5643 5635 5626 5619 5612 5605 5598 5592 5586 5582 5578 5576 5574 5572 5572 5573 5575 5578 5582 5586 5591 5597 5602 5608 5615 5623 5631 5639 5646 5654 5663 5671 5679 5688 5696 5705 5713 5721 5728 5735
5666 5657 5648 5639 5631 5623 5615 5608 5601 5595 5589 5583 5578 5575 5572 5569 5568 5567 5568 5570 5572 5575 5579 5583 5588 5592 5598 5604 5611 5618 5625 5633 5641 5649 5658 5666 5675 5684 5692 5701 5709 5717 5724
5663 5654 5645 5637 5629 5621 5613 5606 5599 5592 5587 5581 5576 5572 5569 5566 5565 5564 5564 5565 5567 5570 5573 5577 5580 5585 5590 5595 5601 5607 5613 5621 5628 5637 5645 5654 5662 5672 5680 5688 5696 5704 5711
5660 5651 5643 5635 5627 5619 5612 5605 5598 5591 5585 5580 5575 5571 5567 5564 5562 5562 5562 5562 5564 5566 5568 5571 5575 5578 5582 5587 5592 5598 5604 5610 5617 5625 5633 5641 5649 5658 5667 5675 5684 5692 5699
5658 5650 5641 5633 5626 5619 5611 5604 5597 5591 5584 5579 5574 5569 5566 5563 5561 5560 5560 5560 5561 5562 5564 5567 5569 5572 5576 5580 5585 5589 5595 5601 5607 5614 5621 5629 5637 5646 5655 5663 5672 5680 5688
5657 5649 5640 5632 5625 5618 5611 5604 5597 5590 5584 5579 5574 5569 5566 5563 5561 5559 5559 5559 5559 5560 5561 5563 5565 5568 5571 5574 5578 5582 5587 5592 5598 5604 5611 5618 5626 5635 5643 5652 5660 5668 5677
5656 5648 5640 5632 5625 5618 5611 5604 5597 5591 5585 5580 5574 5570 5566 5563 5561 5559 5558 5557 5557 5558 5559 5560 5562 5564 5566 5569 5572 5576 5580 5585 5590 5595 5602 5609 5616 5624 5633 5641 5649 5657 5665
5656 5648 5640 5633 5626 5618 5611 5605 5598 5592 5586 5581 5576 5571 5568 5564 5562 5560 5558 5557 5557 5556 5557 5558 5559 5560 5562 5564 5567 5570 5574 5578 5583 5588 5594 5600 5607 5614 5622 5631 5639 5646 5654
5656 5648 5641 5634 5626 5619 5612 5606 5600 5594 5589 5584 5579 5574 5570 5566 5563 5561 5559 5558 5557 5556 5556 5557 5557 5558 5559 5561 5563 5565 5568 5572 5576 5581 5587 5592 5599 5606 5614 5622 5630 5637 5644
5656 5648 5641 5634 5628 5621 5614 5608 5602 5596 5591 5586 5582 5577 5573 5569 5565 5562 5560 5558 5557 5557 5556 5556 5556 5556 5557 5558 5560 5561 5564 5566 5570 5575 5580 5585 5591 5598 5605 5613 5621 5628 5636
5656 5649 5642 5635 5629 5622 5616 5610 5605 5599 5594 5589 5585 5580 5576 5572 5568 5565 5562 5559 5558 5557 5556 5555 5555 5555 5555 5556 5557 5558 5560 5562 5565 5569 5574 5579 5584 5590 5598 5605 5613 5620 5628
5655 5649 5643 5637 5630 5624 5618 5612 5607 5602 5597 5592 5587 5583 5578 5574 5570 5567 5564 5561 5559 5557 5556 5555 5554 5554 5554 5555 5556 5556 5558 5559 5562 5565 5569 5574 5579 5585 5591 5598 5605 5613 5621
5655 5649 5643 5638 5632 5626 5620 5614 5609 5604 5599 5595 5590 5586 5581 5577 5573 5569 5566 5563 5561 5559 5557 5556 5555 5554 5554 5554 5555 5556 5556 5558 5560 5563 5566 5571 5575 5580 5586 5592 5599 5607 5614
5654 5649 5644 5638 5633 5627 5622 5616 5611 5606 5602 5597 5592 5588 5584 5580 5576 5572 5568 5565 5562 5560 5558 5557 5556 5555 5555 5555 5555 5556 5556 5557 5559 5561 5565 5569 5573 5578 5583 5589 5596 5602 5609
5653 5648 5643 5638 5633 5628 5623 5618 5613 5609 5604 5600 5595 5591 5587 5582 5578 5574 5571 5568 5565 5562 5560 5559 5558 5557 5557 5557 5557 5557 5558 5559 5560 5562 5565 5568 5572 5577 5582 5587 5593 5599 5605
5651 5646 5642 5637 5633 5628 5624 5619 5615 5610 5606 5602 5597 5593 5589 5585 5581 5578 5574 5571 5568 5565 5563 5562 5561 5560 5559 5559 5559 5560 5560 5561 5562 5564 5566 5569 5573 5577 5581 5586 5592 5597 5603
5649 5645 5640 5636 5632 5628 5623 5619 5615 5611 5607 5604 5600 5596 5592 5588 5585 5581 5578 5574 5571 5569 5567 5565 5564 5563 5563 5562 5563 5563 5564 5564 5565 5567 5569 5571 5574 5578 5581 5586 5591 5596 5601